contact:dominique.lefevre@mio.osupytheas.fr, maurice.libes@osupytheas.fr, didier.mallarino@osupytheas.fr
Project:EMSO http://www.emso-fr.org/EMSO-France
Depth: 2436.0 m
Title:EMSO Ligure Ouest : Data MII capteur MICROCAT
DateTime_Computer,Latitude,Longitude,Temperature,Conductivity,Pressure,DateTime_Instrument
DateTime_Computer,Latitude,Longitude,degC,S m-1,dbar,DateTime_Instrument
2022-05-05T00:00:11Z,42.805,6.029,13.2997,4.60035,2470.156,2022-5-05T02:01:51Z
2022-05-05T00:03:15Z,42.805,6.029,13.2998,4.60036,2470.133,2022-5-05T02:04:55Z
2022-05-05T00:06:18Z,42.805,6.029,13.2996,4.60033,2470.18,2022-5-05T02:07:58Z
2022-05-05T00:09:21Z,42.805,6.029,13.3000,4.60034,2470.18,2022-5-05T02:11:01Z
2022-05-05T00:12:24Z,42.805,6.029,13.2998,4.60034,2470.171,2022-5-05T02:14:04Z
2022-05-05T00:15:27Z,42.805,6.029,13.3000,4.60033,2470.171,2022-5-05T02:17:07Z
2022-05-05T00:18:30Z,42.805,6.029,13.2997,4.60034,2470.156,2022-5-05T02:20:10Z
2022-05-05T00:21:33Z,42.805,6.029,13.2997,4.60033,2470.171,2022-5-05T02:23:13Z
2022-05-05T00:24:36Z,42.805,6.029,13.3000,4.60035,2470.18,2022-5-05T02:26:16Z
2022-05-05T00:27:39Z,42.805,6.029,13.2996,4.60034,2470.156,2022-5-05T02:29:19Z
2022-05-05T00:30:43Z,42.805,6.029,13.2997,4.60034,2470.18,2022-5-05T02:32:23Z
2022-05-05T00:33:46Z,42.805,6.029,13.2995,4.60033,2470.156,2022-5-05T02:35:26Z
2022-05-05T00:36:49Z,42.805,6.029,13.2997,4.60034,2470.171,2022-5-05T02:38:29Z
2022-05-05T00:39:52Z,42.805,6.029,13.2998,4.60034,2470.147,2022-5-05T02:41:32Z
2022-05-05T00:42:55Z,42.805,6.029,13.2996,4.60033,2470.171,2022-5-05T02:44:35Z
2022-05-05T00:45:58Z,42.805,6.029,13.2998,4.60034,2470.133,2022-5-05T02:47:38Z
2022-05-05T00:49:01Z,42.805,6.029,13.2998,4.60036,2470.156,2022-5-05T02:50:41Z
2022-05-05T00:52:04Z,42.805,6.029,13.2999,4.60035,2470.133,2022-5-05T02:53:44Z
2022-05-05T00:55:07Z,42.805,6.029,13.2998,4.60035,2470.156,2022-5-05T02:56:48Z
2022-05-05T00:58:11Z,42.805,6.029,13.2996,4.60033,2470.171,2022-5-05T02:59:51Z
2022-05-05T01:01:14Z,42.805,6.029,13.3001,4.60033,2470.11,2022-5-05T03:02:54Z
2022-05-05T01:04:17Z,42.805,6.029,13.2999,4.60035,2470.133,2022-5-05T03:05:57Z
2022-05-05T01:07:20Z,42.805,6.029,13.2993,4.60036,2470.11,2022-5-05T03:09:00Z
2022-05-05T01:10:23Z,42.805,6.029,13.2996,4.60034,2470.133,2022-5-05T03:12:03Z
2022-05-05T01:13:26Z,42.805,6.029,13.2999,4.60033,2470.133,2022-5-05T03:15:06Z
2022-05-05T01:16:29Z,42.805,6.029,13.2998,4.60033,2470.133,2022-5-05T03:18:09Z
2022-05-05T01:19:32Z,42.805,6.029,13.3000,4.60035,2470.124,2022-5-05T03:21:12Z
2022-05-05T01:22:36Z,42.805,6.029,13.2998,4.60033,2470.087,2022-5-05T03:24:16Z
2022-05-05T01:25:39Z,42.805,6.029,13.2998,4.60035,2470.1,2022-5-05T03:27:19Z
2022-05-05T01:28:42Z,42.805,6.029,13.3000,4.60033,2470.133,2022-5-05T03:30:22Z
2022-05-05T01:31:45Z,42.805,6.029,13.2996,4.60033,2470.11,2022-5-05T03:33:25Z
2022-05-05T01:34:48Z,42.805,6.029,13.2996,4.60034,2470.124,2022-5-05T03:36:28Z
2022-05-05T01:37:51Z,42.805,6.029,13.2997,4.60034,2470.124,2022-5-05T03:39:31Z
2022-05-05T01:40:54Z,42.805,6.029,13.2995,4.60034,2470.096,2022-5-05T03:42:34Z
2022-05-05T01:43:57Z,42.805,6.029,13.2999,4.60034,2470.087,2022-5-05T03:45:37Z
2022-05-05T01:47:00Z,42.805,6.029,13.3000,4.60034,2470.11,2022-5-05T03:48:41Z
2022-05-05T01:50:04Z,42.805,6.029,13.2997,4.60033,2470.124,2022-5-05T03:51:44Z
2022-05-05T01:53:07Z,42.805,6.029,13.3002,4.60033,2470.087,2022-5-05T03:54:47Z
2022-05-05T01:56:10Z,42.805,6.029,13.2997,4.60033,2470.087,2022-5-05T03:57:50Z
2022-05-05T01:59:13Z,42.805,6.029,13.2996,4.60033,2470.1,2022-5-05T04:00:53Z
2022-05-05T02:02:16Z,42.805,6.029,13.2999,4.60033,2470.1,2022-5-05T04:03:56Z
2022-05-05T02:05:19Z,42.805,6.029,13.2993,4.60033,2470.087,2022-5-05T04:06:59Z
2022-05-05T02:08:22Z,42.805,6.029,13.2998,4.60033,2470.087,2022-5-05T04:10:02Z
2022-05-05T02:11:25Z,42.805,6.029,13.2999,4.60033,2470.049,2022-5-05T04:13:05Z
2022-05-05T02:14:28Z,42.805,6.029,13.2996,4.60033,2470.063,2022-5-05T04:16:09Z
2022-05-05T02:17:32Z,42.805,6.029,13.2999,4.60033,2470.04,2022-5-05T04:19:12Z
2022-05-05T02:20:35Z,42.805,6.029,13.2996,4.60032,2470.063,2022-5-05T04:22:15Z
2022-05-05T02:23:38Z,42.805,6.029,13.2996,4.60033,2470.049,2022-5-05T04:25:18Z
2022-05-05T02:26:41Z,42.805,6.029,13.2997,4.60033,2470.063,2022-5-05T04:28:21Z
2022-05-05T02:29:44Z,42.805,6.029,13.2996,4.60033,2470.063,2022-5-05T04:31:24Z
2022-05-05T02:32:47Z,42.805,6.029,13.2999,4.60033,2470.077,2022-5-05T04:34:27Z
2022-05-05T02:35:50Z,42.805,6.029,13.2998,4.60033,2470.063,2022-5-05T04:37:30Z
2022-05-05T02:38:53Z,42.805,6.029,13.2998,4.60033,2470.063,2022-5-05T04:40:33Z
2022-05-05T02:41:57Z,42.805,6.029,13.2997,4.60033,2470.04,2022-5-05T04:43:37Z
2022-05-05T02:45:00Z,42.805,6.029,13.2998,4.60032,2470.017,2022-5-05T04:46:40Z
2022-05-05T02:48:03Z,42.805,6.029,13.2998,4.60033,2470.087,2022-5-05T04:49:43Z
2022-05-05T02:51:06Z,42.805,6.029,13.2998,4.60033,2470.077,2022-5-05T04:52:46Z
2022-05-05T02:54:09Z,42.805,6.029,13.2998,4.60033,2470.017,2022-5-05T04:55:49Z
2022-05-05T02:57:12Z,42.805,6.029,13.2996,4.60033,2470.04,2022-5-05T04:58:52Z
2022-05-05T03:00:15Z,42.805,6.029,13.2995,4.60033,2470.04,2022-5-05T05:01:55Z
2022-05-05T03:03:18Z,42.805,6.029,13.2998,4.60033,2470.053,2022-5-05T05:04:58Z
2022-05-05T03:06:21Z,42.805,6.029,13.2996,4.60033,2470.04,2022-5-05T05:08:01Z
2022-05-05T03:09:25Z,42.805,6.029,13.3000,4.60035,2469.993,2022-5-05T05:11:05Z
2022-05-05T03:12:28Z,42.805,6.029,13.2998,4.60033,2470.053,2022-5-05T05:14:08Z
2022-05-05T03:15:31Z,42.805,6.029,13.2997,4.60033,2470.03,2022-5-05T05:17:11Z
2022-05-05T03:18:34Z,42.805,6.029,13.2998,4.60033,2470.007,2022-5-05T05:20:14Z
2022-05-05T03:21:37Z,42.805,6.029,13.2997,4.60033,2470.03,2022-5-05T05:23:17Z
2022-05-05T03:24:40Z,42.805,6.029,13.2997,4.60033,2470.017,2022-5-05T05:26:20Z
2022-05-05T03:27:43Z,42.805,6.029,13.2996,4.60033,2469.979,2022-5-05T05:29:23Z
2022-05-05T03:30:46Z,42.805,6.029,13.2996,4.60033,2469.96,2022-5-05T05:32:26Z
2022-05-05T03:33:49Z,42.805,6.029,13.2995,4.60033,2470.053,2022-5-05T05:35:30Z
2022-05-05T03:36:53Z,42.805,6.029,13.2997,4.60033,2470.04,2022-5-05T05:38:33Z
2022-05-05T03:39:56Z,42.805,6.029,13.2996,4.60033,2469.993,2022-5-05T05:41:36Z
2022-05-05T03:42:59Z,42.805,6.029,13.2999,4.60032,2470.03,2022-5-05T05:44:39Z
2022-05-05T03:46:02Z,42.805,6.029,13.2994,4.60033,2470.007,2022-5-05T05:47:42Z
2022-05-05T03:49:05Z,42.805,6.029,13.2997,4.60032,2470.017,2022-5-05T05:50:45Z
2022-05-05T03:52:08Z,42.805,6.029,13.2994,4.60033,2470.03,2022-5-05T05:53:48Z
2022-05-05T03:55:11Z,42.805,6.029,13.2999,4.60033,2470.03,2022-5-05T05:56:51Z
2022-05-05T03:58:14Z,42.805,6.029,13.2998,4.60034,2470.007,2022-5-05T05:59:54Z
2022-05-05T04:01:18Z,42.805,6.029,13.2996,4.60033,2469.984,2022-5-05T06:02:58Z
2022-05-05T04:04:21Z,42.805,6.029,13.2997,4.60033,2469.993,2022-5-05T06:06:01Z
2022-05-05T04:07:24Z,42.805,6.029,13.2996,4.60033,2469.993,2022-5-05T06:09:04Z
2022-05-05T04:10:27Z,42.805,6.029,13.2996,4.60035,2470.017,2022-5-05T06:12:07Z
2022-05-05T04:13:30Z,42.805,6.029,13.2996,4.60034,2470.007,2022-5-05T06:15:10Z
2022-05-05T04:16:33Z,42.805,6.029,13.2996,4.60033,2470.03,2022-5-05T06:18:13Z
2022-05-05T04:19:36Z,42.805,6.029,13.2998,4.60033,2470.03,2022-5-05T06:21:16Z
2022-05-05T04:22:39Z,42.805,6.029,13.3002,4.60035,2470.007,2022-5-05T06:24:19Z
2022-05-05T04:25:42Z,42.805,6.029,13.2998,4.60035,2469.97,2022-5-05T06:27:22Z
2022-05-05T04:28:46Z,42.805,6.029,13.2996,4.60033,2470.007,2022-5-05T06:30:26Z
2022-05-05T04:31:49Z,42.805,6.029,13.2999,4.60033,2469.984,2022-5-05T06:33:29Z
2022-05-05T04:34:52Z,42.805,6.029,13.2996,4.60033,2470.017,2022-5-05T06:36:32Z
2022-05-05T04:37:55Z,42.805,6.029,13.2998,4.60034,2470.017,2022-5-05T06:39:35Z
2022-05-05T04:40:58Z,42.805,6.029,13.2999,4.60033,2469.97,2022-5-05T06:42:38Z
2022-05-05T04:44:01Z,42.805,6.029,13.2997,4.60032,2469.97,2022-5-05T06:45:41Z
2022-05-05T04:47:04Z,42.805,6.029,13.3003,4.60032,2470.03,2022-5-05T06:48:44Z
2022-05-05T04:50:07Z,42.805,6.029,13.2996,4.60033,2470.007,2022-5-05T06:51:47Z
2022-05-05T04:53:10Z,42.805,6.029,13.3000,4.60033,2470.017,2022-5-05T06:54:51Z
2022-05-05T04:56:14Z,42.805,6.029,13.2997,4.60034,2470.017,2022-5-05T06:57:54Z
2022-05-05T04:59:17Z,42.805,6.029,13.2998,4.60033,2470.017,2022-5-05T07:00:57Z
2022-05-05T05:02:20Z,42.805,6.029,13.2997,4.60033,2470.03,2022-5-05T07:04:00Z
2022-05-05T05:05:23Z,42.805,6.029,13.2997,4.60033,2470.017,2022-5-05T07:07:03Z
2022-05-05T05:08:26Z,42.805,6.029,13.3000,4.60033,2470.053,2022-5-05T07:10:06Z
2022-05-05T05:11:29Z,42.805,6.029,13.2998,4.60033,2470.063,2022-5-05T07:13:09Z
2022-05-05T05:14:32Z,42.805,6.029,13.2997,4.60033,2470.017,2022-5-05T07:16:12Z
2022-05-05T05:17:35Z,42.805,6.029,13.2997,4.60033,2470.03,2022-5-05T07:19:15Z
2022-05-05T05:20:38Z,42.805,6.029,13.2998,4.60033,2470.017,2022-5-05T07:22:19Z
2022-05-05T05:23:42Z,42.805,6.029,13.2998,4.60033,2470.063,2022-5-05T07:25:22Z
2022-05-05T05:26:45Z,42.805,6.029,13.3000,4.60033,2470.017,2022-5-05T07:28:25Z
2022-05-05T05:29:48Z,42.805,6.029,13.2998,4.60033,2470.017,2022-5-05T07:31:28Z
2022-05-05T05:32:51Z,42.805,6.029,13.2995,4.60032,2470.077,2022-5-05T07:34:31Z
2022-05-05T05:35:54Z,42.805,6.029,13.2998,4.60033,2470.077,2022-5-05T07:37:34Z
2022-05-05T05:38:57Z,42.805,6.029,13.2996,4.60033,2470.04,2022-5-05T07:40:37Z
2022-05-05T05:42:00Z,42.805,6.029,13.2994,4.60034,2470.053,2022-5-05T07:43:40Z
2022-05-05T05:45:03Z,42.805,6.029,13.2996,4.60034,2470.053,2022-5-05T07:46:43Z
2022-05-05T05:48:07Z,42.805,6.029,13.2996,4.60033,2470.04,2022-5-05T07:49:47Z
2022-05-05T05:51:10Z,42.805,6.029,13.2999,4.60033,2470.053,2022-5-05T07:52:50Z
2022-05-05T05:54:13Z,42.805,6.029,13.2996,4.60033,2470.077,2022-5-05T07:55:53Z
2022-05-05T05:57:16Z,42.805,6.029,13.2995,4.60033,2470.053,2022-5-05T07:58:56Z
2022-05-05T06:00:19Z,42.805,6.029,13.3000,4.60033,2470.077,2022-5-05T08:01:59Z
2022-05-05T06:03:22Z,42.805,6.029,13.2998,4.60033,2470.04,2022-5-05T08:05:02Z
2022-05-05T06:06:25Z,42.805,6.029,13.2996,4.60033,2470.087,2022-5-05T08:08:05Z
2022-05-05T06:09:28Z,42.805,6.029,13.2996,4.60032,2470.077,2022-5-05T08:11:08Z
2022-05-05T06:12:31Z,42.805,6.029,13.3000,4.60039,2470.087,2022-5-05T08:14:11Z
2022-05-05T06:15:35Z,42.805,6.029,13.2997,4.60033,2470.063,2022-5-05T08:17:15Z
2022-05-05T06:18:38Z,42.805,6.029,13.2999,4.60034,2470.063,2022-5-05T08:20:18Z
2022-05-05T06:21:41Z,42.805,6.029,13.3000,4.60033,2470.087,2022-5-05T08:23:21Z
2022-05-05T06:24:44Z,42.805,6.029,13.2998,4.60034,2470.087,2022-5-05T08:26:24Z
2022-05-05T06:27:47Z,42.805,6.029,13.2997,4.60032,2470.087,2022-5-05T08:29:27Z
2022-05-05T06:30:50Z,42.805,6.029,13.2998,4.60033,2470.063,2022-5-05T08:32:30Z
2022-05-05T06:33:53Z,42.805,6.029,13.2996,4.60033,2470.063,2022-5-05T08:35:33Z
2022-05-05T06:36:57Z,42.805,6.029,13.2995,4.60033,2470.04,2022-5-05T08:38:37Z
2022-05-05T06:40:00Z,42.805,6.029,13.2998,4.60034,2470.063,2022-5-05T08:41:40Z
2022-05-05T06:43:03Z,42.805,6.029,13.2994,4.60036,2470.063,2022-5-05T08:44:43Z
2022-05-05T06:46:06Z,42.805,6.029,13.3000,4.60035,2470.077,2022-5-05T08:47:46Z
2022-05-05T06:49:10Z,42.805,6.029,13.2998,4.60033,2470.11,2022-5-05T08:50:50Z
2022-05-05T06:52:13Z,42.805,6.029,13.2995,4.60033,2470.11,2022-5-05T08:53:53Z
2022-05-05T06:55:16Z,42.805,6.029,13.2997,4.60033,2470.1,2022-5-05T08:56:56Z
2022-05-05T06:58:19Z,42.805,6.029,13.2999,4.60034,2470.087,2022-5-05T08:59:59Z
2022-05-05T07:01:22Z,42.805,6.029,13.2996,4.60032,2470.124,2022-5-05T09:03:02Z
2022-05-05T07:04:25Z,42.805,6.029,13.2999,4.60034,2470.096,2022-5-05T09:06:05Z
2022-05-05T07:07:28Z,42.805,6.029,13.2998,4.60036,2470.087,2022-5-05T09:09:08Z
2022-05-05T07:10:31Z,42.805,6.029,13.2992,4.60034,2470.087,2022-5-05T09:12:11Z
2022-05-05T07:13:34Z,42.805,6.029,13.2998,4.60033,2470.1,2022-5-05T09:15:15Z
2022-05-05T07:16:38Z,42.805,6.029,13.2998,4.60033,2470.171,2022-5-05T09:18:18Z
2022-05-05T07:19:41Z,42.805,6.029,13.2997,4.60033,2470.133,2022-5-05T09:21:21Z
2022-05-05T07:22:44Z,42.805,6.029,13.3000,4.60033,2470.087,2022-5-05T09:24:24Z
2022-05-05T07:25:47Z,42.805,6.029,13.2997,4.60035,2470.11,2022-5-05T09:27:27Z
2022-05-05T07:28:50Z,42.805,6.029,13.2996,4.60033,2470.087,2022-5-05T09:30:30Z
2022-05-05T07:31:53Z,42.805,6.029,13.2998,4.60033,2470.11,2022-5-05T09:33:33Z
2022-05-05T07:34:56Z,42.805,6.029,13.2993,4.60033,2470.087,2022-5-05T09:36:36Z
2022-05-05T07:37:59Z,42.805,6.029,13.2998,4.60035,2470.124,2022-5-05T09:39:39Z
2022-05-05T07:41:03Z,42.805,6.029,13.2998,4.60036,2470.11,2022-5-05T09:42:43Z
2022-05-05T07:44:06Z,42.805,6.029,13.2994,4.60034,2470.11,2022-5-05T09:45:46Z
2022-05-05T07:47:09Z,42.805,6.029,13.2994,4.60035,2470.087,2022-5-05T09:48:49Z
2022-05-05T07:50:12Z,42.805,6.029,13.2997,4.60033,2470.11,2022-5-05T09:51:52Z
2022-05-05T07:53:15Z,42.805,6.029,13.2998,4.60035,2470.11,2022-5-05T09:54:55Z
2022-05-05T07:56:18Z,42.805,6.029,13.2999,4.60037,2470.1,2022-5-05T09:57:58Z
2022-05-05T07:59:21Z,42.805,6.029,13.2996,4.60036,2470.124,2022-5-05T10:01:01Z
2022-05-05T08:02:24Z,42.805,6.029,13.2996,4.60035,2470.124,2022-5-05T10:04:04Z
2022-05-05T08:05:27Z,42.805,6.029,13.2994,4.60033,2470.124,2022-5-05T10:07:08Z
2022-05-05T08:08:31Z,42.805,6.029,13.2997,4.60033,2470.087,2022-5-05T10:10:11Z
2022-05-05T08:11:34Z,42.805,6.029,13.2996,4.60033,2470.1,2022-5-05T10:13:14Z
2022-05-05T08:14:37Z,42.805,6.029,13.3000,4.60034,2470.11,2022-5-05T10:16:17Z
2022-05-05T08:17:40Z,42.805,6.029,13.3000,4.60033,2470.124,2022-5-05T10:19:20Z
2022-05-05T08:20:43Z,42.805,6.029,13.2996,4.60033,2470.133,2022-5-05T10:22:23Z
2022-05-05T08:23:46Z,42.805,6.029,13.2999,4.60033,2470.124,2022-5-05T10:25:26Z
2022-05-05T08:26:49Z,42.805,6.029,13.2996,4.60033,2470.133,2022-5-05T10:28:29Z
2022-05-05T08:29:52Z,42.805,6.029,13.2994,4.60034,2470.11,2022-5-05T10:31:32Z
2022-05-05T08:32:56Z,42.805,6.029,13.2997,4.60035,2470.11,2022-5-05T10:34:36Z
2022-05-05T08:35:59Z,42.805,6.029,13.2998,4.60033,2470.087,2022-5-05T10:37:39Z
2022-05-05T08:39:02Z,42.805,6.029,13.2993,4.60035,2470.073,2022-5-05T10:40:42Z
2022-05-05T08:42:05Z,42.805,6.029,13.2998,4.60038,2470.133,2022-5-05T10:43:45Z
2022-05-05T08:45:08Z,42.805,6.029,13.2994,4.60034,2470.11,2022-5-05T10:46:48Z
2022-05-05T08:48:11Z,42.805,6.029,13.2996,4.60036,2470.1,2022-5-05T10:49:51Z
2022-05-05T08:51:14Z,42.805,6.029,13.2997,4.60035,2470.087,2022-5-05T10:52:54Z
2022-05-05T08:54:17Z,42.805,6.029,13.2998,4.60034,2470.1,2022-5-05T10:55:57Z
2022-05-05T08:57:21Z,42.805,6.029,13.2996,4.60033,2470.11,2022-5-05T10:59:01Z
2022-05-05T09:00:24Z,42.805,6.029,13.2998,4.60033,2470.1,2022-5-05T11:02:04Z
2022-05-05T09:03:27Z,42.805,6.029,13.2998,4.60034,2470.087,2022-5-05T11:05:07Z
2022-05-05T09:06:30Z,42.805,6.029,13.2996,4.60034,2470.11,2022-5-05T11:08:10Z
2022-05-05T09:09:33Z,42.805,6.029,13.2998,4.60033,2470.1,2022-5-05T11:11:13Z
2022-05-05T09:12:36Z,42.805,6.029,13.2999,4.60033,2470.11,2022-5-05T11:14:16Z
2022-05-05T09:15:39Z,42.805,6.029,13.2998,4.60033,2470.11,2022-5-05T11:17:19Z
2022-05-05T09:18:42Z,42.805,6.029,13.2998,4.60035,2470.087,2022-5-05T11:20:22Z
2022-05-05T09:21:45Z,42.805,6.029,13.3002,4.60033,2470.1,2022-5-05T11:23:26Z
2022-05-05T09:24:49Z,42.805,6.029,13.2998,4.60034,2470.133,2022-5-05T11:26:29Z
2022-05-05T09:27:52Z,42.805,6.029,13.2999,4.60036,2470.133,2022-5-05T11:29:32Z
2022-05-05T09:30:55Z,42.805,6.029,13.2999,4.60035,2470.143,2022-5-05T11:32:35Z
2022-05-05T09:33:58Z,42.805,6.029,13.2996,4.60038,2470.124,2022-5-05T11:35:38Z
2022-05-05T09:37:01Z,42.805,6.029,13.2992,4.60036,2470.1,2022-5-05T11:38:41Z
2022-05-05T09:40:04Z,42.805,6.029,13.2996,4.60035,2470.063,2022-5-05T11:41:44Z
2022-05-05T09:43:07Z,42.805,6.029,13.2997,4.60033,2470.11,2022-5-05T11:44:47Z
2022-05-05T09:46:10Z,42.805,6.029,13.2998,4.60035,2470.096,2022-5-05T11:47:51Z
2022-05-05T09:49:14Z,42.805,6.029,13.2996,4.60033,2470.077,2022-5-05T11:50:54Z
2022-05-05T09:52:17Z,42.805,6.029,13.2998,4.60033,2470.087,2022-5-05T11:53:57Z
2022-05-05T09:55:20Z,42.805,6.029,13.2998,4.60033,2470.124,2022-5-05T11:57:00Z
2022-05-05T09:58:23Z,42.805,6.029,13.2995,4.60034,2470.124,2022-5-05T12:00:03Z
2022-05-05T10:01:26Z,42.805,6.029,13.2998,4.60034,2470.124,2022-5-05T12:03:06Z
2022-05-05T10:04:29Z,42.805,6.029,13.2998,4.60033,2470.171,2022-5-05T12:06:09Z
2022-05-05T10:07:32Z,42.805,6.029,13.2996,4.60033,2470.11,2022-5-05T12:09:12Z
2022-05-05T10:10:35Z,42.805,6.029,13.2998,4.60035,2470.063,2022-5-05T12:12:15Z
2022-05-05T10:13:39Z,42.805,6.029,13.2997,4.60034,2470.087,2022-5-05T12:15:19Z
2022-05-05T10:16:42Z,42.805,6.029,13.2996,4.60034,2470.087,2022-5-05T12:18:22Z
2022-05-05T10:19:45Z,42.805,6.029,13.2993,4.60034,2470.11,2022-5-05T12:21:25Z
2022-05-05T10:22:48Z,42.805,6.029,13.2997,4.60034,2470.087,2022-5-05T12:24:28Z
2022-05-05T10:25:51Z,42.805,6.029,13.3000,4.60033,2470.1,2022-5-05T12:27:31Z
2022-05-05T10:28:54Z,42.805,6.029,13.2997,4.60033,2470.147,2022-5-05T12:30:34Z
2022-05-05T10:31:57Z,42.805,6.029,13.3000,4.60033,2470.124,2022-5-05T12:33:37Z
2022-05-05T10:35:00Z,42.805,6.029,13.2997,4.60035,2470.11,2022-5-05T12:36:40Z
2022-05-05T10:38:03Z,42.805,6.029,13.2993,4.60035,2470.087,2022-5-05T12:39:44Z
2022-05-05T10:41:07Z,42.805,6.029,13.2998,4.60036,2470.147,2022-5-05T12:42:47Z
2022-05-05T10:44:10Z,42.805,6.029,13.2997,4.60036,2470.1,2022-5-05T12:45:50Z
2022-05-05T10:47:13Z,42.805,6.029,13.2997,4.60033,2470.087,2022-5-05T12:48:53Z
2022-05-05T10:50:16Z,42.805,6.029,13.2998,4.60033,2470.133,2022-5-05T12:51:56Z
2022-05-05T10:53:19Z,42.805,6.029,13.2998,4.60033,2470.087,2022-5-05T12:54:59Z
2022-05-05T10:56:22Z,42.805,6.029,13.3000,4.60035,2470.124,2022-5-05T12:58:02Z
2022-05-05T10:59:25Z,42.805,6.029,13.2998,4.60033,2470.063,2022-5-05T13:01:05Z
2022-05-05T11:02:28Z,42.805,6.029,13.2998,4.60034,2470.11,2022-5-05T13:04:09Z
2022-05-05T11:05:32Z,42.805,6.029,13.2997,4.60034,2470.077,2022-5-05T13:07:12Z
2022-05-05T11:08:35Z,42.805,6.029,13.2997,4.60034,2470.147,2022-5-05T13:10:15Z
2022-05-05T11:11:38Z,42.805,6.029,13.2997,4.60035,2470.11,2022-5-05T13:13:18Z
2022-05-05T11:14:41Z,42.805,6.029,13.2998,4.60034,2470.04,2022-5-05T13:16:21Z
2022-05-05T11:17:44Z,42.805,6.029,13.3000,4.60033,2470.087,2022-5-05T13:19:24Z
2022-05-05T11:20:47Z,42.805,6.029,13.2998,4.60034,2470.063,2022-5-05T13:22:27Z
2022-05-05T11:23:50Z,42.805,6.029,13.2996,4.60034,2470.087,2022-5-05T13:25:30Z
2022-05-05T11:26:53Z,42.805,6.029,13.2995,4.60036,2470.063,2022-5-05T13:28:33Z
2022-05-05T11:29:57Z,42.805,6.029,13.2998,4.60034,2470.087,2022-5-05T13:31:37Z
2022-05-05T11:33:00Z,42.805,6.029,13.2996,4.60036,2470.077,2022-5-05T13:34:40Z
2022-05-05T11:36:03Z,42.805,6.029,13.2996,4.60037,2470.087,2022-5-05T13:37:43Z
2022-05-05T11:39:06Z,42.805,6.029,13.2998,4.60034,2470.11,2022-5-05T13:40:46Z
2022-05-05T11:42:09Z,42.805,6.029,13.3000,4.60034,2470.147,2022-5-05T13:43:49Z
2022-05-05T11:45:12Z,42.805,6.029,13.2999,4.60033,2470.11,2022-5-05T13:46:52Z
2022-05-05T11:48:15Z,42.805,6.029,13.2997,4.60033,2470.087,2022-5-05T13:49:55Z
2022-05-05T11:51:18Z,42.805,6.029,13.2998,4.60033,2470.087,2022-5-05T13:52:58Z
2022-05-05T11:54:22Z,42.805,6.029,13.2998,4.60035,2470.1,2022-5-05T13:56:02Z
2022-05-05T11:57:25Z,42.805,6.029,13.2996,4.60037,2470.124,2022-5-05T13:59:05Z
2022-05-05T12:00:28Z,42.805,6.029,13.2997,4.60033,2470.11,2022-5-05T14:02:08Z
2022-05-05T12:03:31Z,42.805,6.029,13.2998,4.60033,2470.11,2022-5-05T14:05:11Z
2022-05-05T12:06:34Z,42.805,6.029,13.2996,4.60033,2470.133,2022-5-05T14:08:14Z
2022-05-05T12:09:37Z,42.805,6.029,13.2992,4.60033,2470.11,2022-5-05T14:11:17Z
2022-05-05T12:12:40Z,42.805,6.029,13.2996,4.60033,2470.087,2022-5-05T14:14:20Z
2022-05-05T12:15:43Z,42.805,6.029,13.2997,4.60034,2470.077,2022-5-05T14:17:23Z
2022-05-05T12:18:46Z,42.805,6.029,13.2997,4.60036,2470.087,2022-5-05T14:20:27Z
2022-05-05T12:21:50Z,42.805,6.029,13.2995,4.60033,2470.087,2022-5-05T14:23:30Z
2022-05-05T12:24:53Z,42.805,6.029,13.2994,4.60033,2470.087,2022-5-05T14:26:33Z
2022-05-05T12:27:56Z,42.805,6.029,13.2999,4.60033,2470.087,2022-5-05T14:29:36Z
2022-05-05T12:30:59Z,42.805,6.029,13.3000,4.60034,2470.11,2022-5-05T14:32:39Z
2022-05-05T12:34:02Z,42.805,6.029,13.2999,4.60034,2470.063,2022-5-05T14:35:42Z
2022-05-05T12:37:05Z,42.805,6.029,13.2998,4.60034,2470.087,2022-5-05T14:38:45Z
2022-05-05T12:40:08Z,42.805,6.029,13.2998,4.60033,2470.063,2022-5-05T14:41:48Z
2022-05-05T12:43:11Z,42.805,6.029,13.3000,4.60034,2470.133,2022-5-05T14:44:52Z
2022-05-05T12:46:15Z,42.805,6.029,13.2997,4.60036,2470.1,2022-5-05T14:47:55Z
2022-05-05T12:49:18Z,42.805,6.029,13.2994,4.60034,2470.087,2022-5-05T14:50:58Z
2022-05-05T12:52:21Z,42.805,6.029,13.2996,4.60033,2470.087,2022-5-05T14:54:01Z
2022-05-05T12:55:24Z,42.805,6.029,13.2993,4.60033,2470.077,2022-5-05T14:57:04Z
2022-05-05T12:58:27Z,42.805,6.029,13.2998,4.60035,2470.053,2022-5-05T15:00:07Z
2022-05-05T13:01:30Z,42.805,6.029,13.2998,4.60034,2470.063,2022-5-05T15:03:10Z
2022-05-05T13:04:33Z,42.805,6.029,13.3000,4.60033,2470.087,2022-5-05T15:06:13Z
2022-05-05T13:07:36Z,42.805,6.029,13.2998,4.60033,2470.087,2022-5-05T15:09:16Z
2022-05-05T13:10:40Z,42.805,6.029,13.2996,4.60033,2470.087,2022-5-05T15:12:20Z
2022-05-05T13:13:43Z,42.805,6.029,13.2992,4.60034,2470.11,2022-5-05T15:15:23Z
2022-05-05T13:16:46Z,42.805,6.029,13.2997,4.60033,2470.1,2022-5-05T15:18:26Z
2022-05-05T13:19:49Z,42.805,6.029,13.2998,4.60035,2470.053,2022-5-05T15:21:29Z
2022-05-05T13:22:52Z,42.805,6.029,13.2996,4.60034,2470.04,2022-5-05T15:24:32Z
2022-05-05T13:25:55Z,42.805,6.029,13.2996,4.60034,2470.077,2022-5-05T15:27:35Z
2022-05-05T13:28:58Z,42.805,6.029,13.2995,4.60035,2470.053,2022-5-05T15:30:38Z
2022-05-05T13:32:01Z,42.805,6.029,13.2996,4.60033,2470.04,2022-5-05T15:33:41Z
2022-05-05T13:35:04Z,42.805,6.029,13.3000,4.60035,2470.053,2022-5-05T15:36:45Z
2022-05-05T13:38:08Z,42.805,6.029,13.2998,4.60038,2470.063,2022-5-05T15:39:48Z
2022-05-05T13:41:11Z,42.805,6.029,13.2996,4.60034,2470.04,2022-5-05T15:42:51Z
2022-05-05T13:44:14Z,42.805,6.029,13.2996,4.60036,2470.04,2022-5-05T15:45:54Z
2022-05-05T13:47:17Z,42.805,6.029,13.2998,4.60033,2470.087,2022-5-05T15:48:57Z
2022-05-05T13:50:20Z,42.805,6.029,13.2999,4.60033,2470.04,2022-5-05T15:52:00Z
2022-05-05T13:53:23Z,42.805,6.029,13.2996,4.60036,2470.017,2022-5-05T15:55:03Z
2022-05-05T13:56:26Z,42.805,6.029,13.2997,4.60034,2470.04,2022-5-05T15:58:06Z
2022-05-05T13:59:29Z,42.805,6.029,13.2993,4.60033,2469.993,2022-5-05T16:01:10Z
2022-05-05T14:02:33Z,42.805,6.029,13.2996,4.60034,2470.017,2022-5-05T16:04:13Z
2022-05-05T14:05:36Z,42.805,6.029,13.2996,4.60033,2470.017,2022-5-05T16:07:16Z
2022-05-05T14:08:39Z,42.805,6.029,13.2997,4.60035,2470.017,2022-5-05T16:10:19Z
2022-05-05T14:11:42Z,42.805,6.029,13.2996,4.60034,2470.03,2022-5-05T16:13:22Z
2022-05-05T14:14:45Z,42.805,6.029,13.3001,4.60035,2470.04,2022-5-05T16:16:25Z
2022-05-05T14:17:48Z,42.805,6.029,13.2996,4.60034,2470.017,2022-5-05T16:19:28Z
2022-05-05T14:20:51Z,42.805,6.029,13.2997,4.60033,2469.97,2022-5-05T16:22:31Z
2022-05-05T14:23:54Z,42.805,6.029,13.2998,4.60033,2470.017,2022-5-05T16:25:34Z
2022-05-05T14:26:58Z,42.805,6.029,13.2999,4.60034,2469.984,2022-5-05T16:28:38Z
2022-05-05T14:30:01Z,42.805,6.029,13.2998,4.60034,2470.017,2022-5-05T16:31:41Z
2022-05-05T14:33:04Z,42.805,6.029,13.3001,4.60033,2470.007,2022-5-05T16:34:44Z
2022-05-05T14:36:07Z,42.805,6.029,13.2996,4.60031,2469.993,2022-5-05T16:37:47Z
2022-05-05T14:39:10Z,42.805,6.029,13.2996,4.60033,2469.993,2022-5-05T16:40:50Z
2022-05-05T14:42:13Z,42.805,6.029,13.3000,4.60033,2469.984,2022-5-05T16:43:53Z
2022-05-05T14:45:16Z,42.805,6.029,13.3000,4.60033,2469.993,2022-5-05T16:46:56Z
2022-05-05T14:48:19Z,42.805,6.029,13.2998,4.60033,2469.956,2022-5-05T16:49:59Z
2022-05-05T14:51:22Z,42.805,6.029,13.2998,4.60033,2470.017,2022-5-05T16:53:03Z
2022-05-05T14:54:26Z,42.805,6.029,13.2998,4.60033,2469.993,2022-5-05T16:56:06Z
2022-05-05T14:57:29Z,42.805,6.029,13.2996,4.60033,2470.017,2022-5-05T16:59:09Z
2022-05-05T15:00:32Z,42.805,6.029,13.2995,4.60033,2470.03,2022-5-05T17:02:12Z
2022-05-05T15:03:35Z,42.805,6.029,13.2993,4.60033,2470.007,2022-5-05T17:05:15Z
2022-05-05T15:06:38Z,42.805,6.029,13.2994,4.60033,2470.03,2022-5-05T17:08:18Z
2022-05-05T15:09:41Z,42.805,6.029,13.2996,4.60032,2470.007,2022-5-05T17:11:21Z
2022-05-05T15:12:44Z,42.805,6.029,13.3000,4.60033,2469.993,2022-5-05T17:14:24Z